PulseSat

PulseSat

GORIZONT 19 [-]

Last updated on Dec. 17, 2018, 12:08 a.m. UTC

1 20263U 89081A   18350.86406112 -.00000317  00000-0  00000+0 0  9995
2 20263  14.7100 355.8802 0006752 273.6408 229.6952  1.00216568107023
UTC
Height (km)
Latitude
Longitude
Inclination
Orbital Period

Next 30 passes for location: Hong Kong

Rise time Rise Azimuth (degrees) Set time Set Azimuth (degrees) Duration Max altitude (degrees)

No matching passes for this satellites

PulseSat

PulseSat is the new satellites software and hardware trackering solution by Pulsely.
Satellite Two Line Element Set source: US Air Force Space Command

Download PulseSat for iOS
© 2017 Pulsely Limited